Regional Weather Roundup
Issued by NWS Newport/Morehead, NC

Current Version | Previous Version | Graphics & Text | Print | Product List | Glossary Off
Versions: 1 2 3 4 5 6 7 8 9 10 11 12 13 14 15 16 17 18 19 20 21 22 23 24 25 26 27 28 29 30 31 32 33 34 35 36 37 38 39 40 41 42 43 44 45 46 47 48 49 50

000
ASUS42 KMHX 012210
RWRMHX
WEATHER ROUNDUP FOR EASTERN NORTH CAROLINA
NATIONAL WEATHER SERVICE NEWPORT/MOREHEAD CITY NC
600 PM EDT MON SEP 01 2014

NOTE: "FAIR" INDICATES FEW OR NO CLOUDS BELOW 12,000 FEET
WITH NO SIGNIFICANT WEATHER AND/OR OBSTRUCTIONS TO VISIBILITY

NCZ015>017-031-032-045>047-102-103-012300-
NORTH COAST

CITY           SKY/WX    TMP DP  RH WIND       PRES   REMARKS
EDENTON        PTSUNNY   90  73  58 SW6       30.01S
ELIZABETH CITY MOSUNNY   88  73  61 SW7       30.01R
KITTY HAWK     PTCLDY    86  76  70 S8        30.01S
MANTEO         MOSUNNY   85  76  73 S15       30.03S

$$

NCZ045>047-081-094-103-104-012300-
CENTRAL COAST

CITY           SKY/WX    TMP DP  RH WIND       PRES   REMARKS
FRISCO         SUNNY     82  77  84 SW13G22   30.05F
SWANQUARTER      N/A     86 N/A N/A S17       30.00S

$$

NCZ095-097-098-100-101-012300-
SOUTHERN COAST

CITY           SKY/WX    TMP DP  RH WIND       PRES   REMARKS
BEAUFORT       MOSUNNY   84  75  74 SW14      30.06S
CEDAR ISLAND     N/A     88 N/A N/A S14       30.09S
JACKSONVILLE   PTSUNNY   83  76  79 S8G18     30.05R
NEWPORT        NOT AVBL
PINEY ISLAND   CLEAR     88  74  63 S13       30.04F
WILMINGTON     PTSUNNY   87  75  67 S12       30.04F


$$

NCZ011>013-027>030-043-044-078>080-089-090>093-098-012300-
COASTAL PLAIN

CITY           SKY/WX    TMP DP  RH WIND       PRES   REMARKS
AHOSKIE        PTSUNNY   87  72  61 CALM      30.01S
CLINTON        MOSUNNY   91  73  55 S5        30.03R HX 100
ELIZABETHTOWN  MOSUNNY   92  72  51 S6        30.03F
GOLDSBORO      MOSUNNY   92  74  54 SW2       30.00S HX 101
GREENVILLE     MOSUNNY   90  73  58 W3        30.04R
HAVELOCK       MOSUNNY   85  75  72 S12       30.06S
KENANSVILLE    MOSUNNY   88  73  59 CALM      30.04R
KINSTON        MOSUNNY   91  70  49 SW3       30.03S
NEW BERN       MOSUNNY   88  75  65 SW10      30.05R
RICHLANDS      PTSUNNY   88  75  66 S13       30.04S
ROANOKE RAPIDS NOT AVBL
ROCKY MOUNT    PTSUNNY   90  74  59 S6        30.02S
WASHINGTON     MOSUNNY   91  71  51 SW8       30.02S
WHITEVILLE     MOSUNNY   88  76  68 S9        30.04S

$$

AMZ130-135-150-152-154-156-158-170-250-252-270-ANZ085-086-088-633-658-670-012300-
MARINE OBSERVATIONS

STATION/POSITION TIME  TEMP    WIND        PRES    WAVE   SWELL
                       AIR SEA DIR/SP/G            HT/PER HT/PER
                 (UTC) (F)     (DEG/KT/KT) (MB)    (FT/S) (FT/S)
CHESAPEAKE LIGHT 2100   81     170/ 21/ 23 1015.5
BUOY 44014       2200   79 78  190/ 14/ 16 1016.3    3/ 8   2/ 8
DUCK             2200   87 76  180/ 14/ 18 1015.2
2E DUCK          2200                        N/A     2/ 9   2/13
OREGON INLET     2200   83 84  190/ 18/ 20 1017.0
BUOY 44095       2200      80                N/A     3/ 9   2/11
20E OREGON INLET NOT AVBL
HATTERAS CG      2200   83 84  200/  9/ 15 1018.1
DIAMOND BUOY     2200   82     200/ 16/ 17 1017.8    3/ 8   2/ 8
CAPE LOOKOUT     2100   84     200/ 11/ 13 1018.0
BEAUFORT LAB     2200   83 83  200/ 13/ 15 1017.2
30 SE NEW RIVER  2200   83 83  210/ 12/ 14 1018.1    2/ 8   2/ 8
5 SE WRIGHTSVILL 2100   80 84  210/ 16/ 17   N/A
BUOY 41002       2142   82 85  190/  6/  8 1020.1    3/ 8   3/ 8
BUOY 41004       2200   83 85  160/ 10/ 10 1018.0    2/ 9   2/ 9

$$


USA.gov is the U.S. government's official web portal to all federal, state and local government web resources and services.